time, Switch, Flow(0), Analog(2)
yyyy/mm/dd HH:MM:SS.fff, True=FILTERED|False=TOTAL, L/min, V
2023/06/29 03:00:01.437, True, 4.973, 0.127718
2023/06/29 03:00:01.933, True, 4.725, 0.128557
2023/06/29 03:00:02.437, True, 4.635, 0.128023
2023/06/29 03:00:02.941, True, 4.651, 0.128176
2023/06/29 03:00:03.437, True, 4.718, 0.129168
2023/06/29 03:00:03.941, True, 4.303, 0.128252
2023/06/29 03:00:04.445, True, 2.657, 0.127794
2023/06/29 03:00:04.949, True, 2.317, 0.129091
2023/06/29 03:00:05.445, True, 2.022, 0.127947
2023/06/29 03:00:05.949, True, 1.989, 0.128023
2023/06/29 03:00:06.453, True, 1.659, 0.128557
2023/06/29 03:00:06.949, True, 2.022, 0.128786
2023/06/29 03:00:07.453, True, 1.989, 0.130083
2023/06/29 03:00:07.957, True, 1.991, 0.127871
2023/06/29 03:00:08.453, True, 1.688, 0.130541
2023/06/29 03:00:08.957, True, 1.989, 0.128099
2023/06/29 03:00:09.461, True, 1.987, 0.129549
2023/06/29 03:00:09.957, True, 2.022, 0.126116
2023/06/29 03:00:10.461, True, 1.988, 0.128481
2023/06/29 03:00:10.965, True, 1.993, 0.126268
2023/06/29 03:00:11.461, True, 1.682, 0.127871
2023/06/29 03:00:11.965, True, 2.322, 0.130770
2023/06/29 03:00:12.469, True, 1.989, 0.128328
2023/06/29 03:00:12.964, True, 2.024, 0.128862
2023/06/29 03:00:13.469, True, 1.987, 0.127642
2023/06/29 03:00:13.973, True, 1.990, 0.129015
2023/06/29 03:00:14.469, True, 2.022, 0.127337
2023/06/29 03:00:14.973, True, 1.990, 0.128557
2023/06/29 03:00:15.477, True, 2.322, 0.126879
2023/06/29 03:00:15.973, True, 2.021, 0.127642
2023/06/29 03:00:16.477, True, 1.990, 0.130159
2023/06/29 03:00:16.981, True, 1.990, 0.129854
2023/06/29 03:00:17.477, True, 2.022, 0.128328
2023/06/29 03:00:17.981, True, 1.990, 0.129320
2023/06/29 03:00:18.485, True, 1.658, 0.129091
2023/06/29 03:00:18.981, True, 2.022, 0.129625
2023/06/29 03:00:19.485, True, 1.990, 0.128710
2023/06/29 03:00:19.989, True, 1.659, 0.128862
2023/06/29 03:00:20.485, True, 2.021, 0.128786
2023/06/29 03:00:20.989, True, 1.990, 0.127718
2023/06/29 03:00:21.493, True, 1.991, 0.130083
2023/06/29 03:00:21.989, True, 2.020, 0.130159
2023/06/29 03:00:22.493, True, 1.993, 0.128481
2023/06/29 03:00:22.997, True, 1.987, 0.129778
2023/06/29 03:00:23.493, True, 2.022, 0.128023
2023/06/29 03:00:23.997, True, 1.992, 0.127337
2023/06/29 03:00:24.501, True, 1.987, 0.129931
2023/06/29 03:00:24.997, True, 1.685, 0.128786
2023/06/29 03:00:25.501, True, 1.989, 0.127947
2023/06/29 03:00:26.005, True, 1.992, 0.129549
2023/06/29 03:00:26.501, True, 2.020, 0.128405
2023/06/29 03:00:27.005, True, 1.991, 0.128481
2023/06/29 03:00:27.501, True, 2.020, 0.129168
2023/06/29 03:00:28.005, True, 1.990, 0.129549
2023/06/29 03:00:28.509, True, 1.990, 0.129244
2023/06/29 03:00:29.005, True, 2.024, 0.129397
2023/06/29 03:00:29.509, True, 1.656, 0.126421
2023/06/29 03:00:30.013, True, 1.990, 0.126497
2023/06/29 03:00:30.509, True, 2.022, 0.129168
2023/06/29 03:00:31.013, True, 1.990, 0.128786
2023/06/29 03:00:31.517, True, 1.658, 0.128862
2023/06/29 03:00:32.013, True, 2.022, 0.129091
2023/06/29 03:00:32.517, True, 1.990, 0.128634
2023/06/29 03:00:33.021, True, 1.989, 0.129397
2023/06/29 03:00:33.525, True, 1.992, 0.127184
2023/06/29 03:00:34.021, True, 2.019, 0.130999
2023/06/29 03:00:34.525, True, 1.658, 0.130846
2023/06/29 03:00:35.021, True, 2.022, 0.131685
2023/06/29 03:00:35.525, True, 1.989, 0.129320
2023/06/29 03:00:36.029, True, 1.990, 0.129702
2023/06/29 03:00:36.533, True, 1.989, 0.130541
2023/06/29 03:00:37.029, True, 2.022, 0.131075
2023/06/29 03:00:37.533, True, 1.658, 0.130617
2023/06/29 03:00:38.028, True, 2.022, 0.132830
2023/06/29 03:00:38.533, True, 1.990, 0.132677
2023/06/29 03:00:39.037, True, 1.989, 0.131228
2023/06/29 03:00:39.533, True, 2.022, 0.132982
2023/06/29 03:00:40.037, True, 1.990, 0.131304
2023/06/29 03:00:40.541, True, 1.990, 0.131075
2023/06/29 03:00:41.037, True, 2.022, 0.132296
2023/06/29 03:00:41.542, True, 1.990, 0.130312
2023/06/29 03:00:42.045, True, 1.989, 0.129625
2023/06/29 03:00:42.541, True, 2.022, 0.131991
2023/06/29 03:00:43.045, True, 1.990, 0.131838
2023/06/29 03:00:43.549, True, 1.990, 0.130312
2023/06/29 03:00:44.045, True, 1.685, 0.133211
2023/06/29 03:00:44.549, True, 1.990, 0.130388
2023/06/29 03:00:45.053, True, 1.990, 0.131228
2023/06/29 03:00:45.549, True, 2.022, 0.133898
2023/06/29 03:00:46.053, True, 1.658, 0.132601
2023/06/29 03:00:46.557, True, 1.990, 0.133898
2023/06/29 03:00:47.053, True, 2.022, 0.134051
2023/06/29 03:00:47.557, True, 1.990, 0.133288
2023/06/29 03:00:48.061, True, 1.989, 0.134203
2023/06/29 03:00:48.557, True, 2.359, 0.134813
2023/06/29 03:00:49.061, True, 1.989, 0.134356
2023/06/29 03:00:49.565, True, 1.990, 0.137713
2023/06/29 03:00:50.061, True, 2.021, 0.135729
2023/06/29 03:00:50.565, True, 1.658, 0.135576
2023/06/29 03:00:51.069, True, 1.989, 0.136034
2023/06/29 03:00:51.565, True, 2.022, 0.135195
2023/06/29 03:00:52.069, True, 1.990, 0.134737
2023/06/29 03:00:52.565, True, 2.021, 0.134890
2023/06/29 03:00:53.069, True, 1.990, 0.136263
2023/06/29 03:00:53.573, True, 1.990, 0.135348
2023/06/29 03:00:54.069, True, 1.685, 0.135348
2023/06/29 03:00:54.573, True, 1.989, 0.135729
2023/06/29 03:00:55.077, True, 1.990, 0.135882
2023/06/29 03:00:55.573, True, 1.685, 0.138705
2023/06/29 03:00:56.077, True, 1.990, 0.134661
2023/06/29 03:00:56.581, True, 1.990, 0.136797
2023/06/29 03:00:57.077, True, 2.022, 0.134813
2023/06/29 03:00:57.581, True, 1.990, 0.133745
2023/06/29 03:00:58.085, True, 1.990, 0.135500
2023/06/29 03:00:58.581, True, 2.022, 0.135958
2023/06/29 03:00:59.085, True, 1.990, 0.136416
2023/06/29 03:00:59.589, True, 1.658, 0.133516
2023/06/29 03:01:00.085, True, 2.022, 0.135576
2023/06/29 03:01:00.589, True, 1.990, 0.134813
2023/06/29 03:01:01.093, True, 1.990, 0.136034
2023/06/29 03:01:01.589, True, 1.686, 0.136873
2023/06/29 03:01:02.093, True, 1.988, 0.135729
2023/06/29 03:01:02.597, True, 1.990, 0.136568
2023/06/29 03:01:03.093, True, 2.022, 0.137102
2023/06/29 03:01:03.597, True, 1.990, 0.133974
2023/06/29 03:01:04.101, True, 1.989, 0.134356
2023/06/29 03:01:04.597, True, 2.022, 0.136110
2023/06/29 03:01:05.101, True, 1.990, 0.139239
2023/06/29 03:01:05.605, True, 1.990, 0.137407
2023/06/29 03:01:06.101, True, 1.685, 0.138247
2023/06/29 03:01:06.605, True, 1.989, 0.138552
2023/06/29 03:01:07.109, True, 1.990, 0.135195
2023/06/29 03:01:07.605, True, 2.021, 0.133822
2023/06/29 03:01:08.109, True, 1.990, 0.137484
2023/06/29 03:01:08.613, True, 1.990, 0.134585
2023/06/29 03:01:09.109, True, 2.021, 0.136263
2023/06/29 03:01:09.613, True, 1.990, 0.134356
2023/06/29 03:01:10.117, True, 1.989, 0.136568
2023/06/29 03:01:10.613, True, 2.022, 0.135805
2023/06/29 03:01:11.117, True, 1.658, 0.136187
2023/06/29 03:01:11.621, True, 1.990, 0.136492
2023/06/29 03:01:12.117, True, 2.022, 0.136797
2023/06/29 03:01:12.621, True, 1.989, 0.137331
2023/06/29 03:01:13.125, True, 1.990, 0.135576
2023/06/29 03:01:13.621, True, 2.023, 0.136416
2023/06/29 03:01:14.125, True, 1.988, 0.135958
2023/06/29 03:01:14.629, True, 1.990, 0.135348
2023/06/29 03:01:15.125, True, 2.021, 0.136568
2023/06/29 03:01:15.629, True, 1.990, 0.137179
2023/06/29 03:01:16.133, True, 2.325, 0.133669
2023/06/29 03:01:16.629, True, 2.018, 0.135958
2023/06/29 03:01:17.133, True, 1.990, 0.136187
2023/06/29 03:01:17.629, True, 2.022, 0.137789
2023/06/29 03:01:18.133, True, 1.989, 0.136492
2023/06/29 03:01:18.637, True, 1.989, 0.137942
2023/06/29 03:01:19.133, True, 2.022, 0.135805
2023/06/29 03:01:19.637, True, 1.990, 0.136797
2023/06/29 03:01:20.141, True, 1.989, 0.136873
2023/06/29 03:01:20.637, True, 2.022, 0.135119
2023/06/29 03:01:21.141, True, 1.990, 0.135195
2023/06/29 03:01:21.645, True, 1.990, 0.135576
2023/06/29 03:01:22.141, True, 2.021, 0.137102
2023/06/29 03:01:22.645, True, 1.989, 0.135958
2023/06/29 03:01:23.150, True, 2.321, 0.136110
2023/06/29 03:01:23.645, True, 2.023, 0.135653
2023/06/29 03:01:24.149, True, 1.989, 0.136187
2023/06/29 03:01:24.653, True, 1.990, 0.134432
2023/06/29 03:01:25.149, True, 2.021, 0.135576
2023/06/29 03:01:25.653, True, 2.321, 0.136721
2023/06/29 03:01:26.149, True, 2.023, 0.134813
2023/06/29 03:01:26.653, True, 1.989, 0.136645
2023/06/29 03:01:27.157, True, 1.989, 0.134890
2023/06/29 03:01:27.653, True, 2.022, 0.137102
2023/06/29 03:01:28.156, True, 1.990, 0.135500
2023/06/29 03:01:28.661, True, 1.990, 0.136187
2023/06/29 03:01:29.157, True, 2.021, 0.133822
2023/06/29 03:01:29.661, True, 1.990, 0.138018
2023/06/29 03:01:30.165, True, 1.990, 0.136034
2023/06/29 03:01:30.661, True, 1.685, 0.136339
2023/06/29 03:01:31.165, True, 1.990, 0.137255
2023/06/29 03:01:31.669, True, 1.990, 0.138247
2023/06/29 03:01:32.165, True, 2.021, 0.136645
2023/06/29 03:01:32.669, True, 1.990, 0.134737
2023/06/29 03:01:33.173, True, 1.989, 0.136263
2023/06/29 03:01:33.669, True, 2.022, 0.136416
2023/06/29 03:01:34.173, True, 1.990, 0.135042
2023/06/29 03:01:34.677, True, 1.659, 0.135195
2023/06/29 03:01:35.173, True, 2.020, 0.135195
2023/06/29 03:01:35.677, True, 1.990, 0.133440
2023/06/29 03:01:36.181, True, 1.990, 0.134813
2023/06/29 03:01:36.677, True, 2.023, 0.133135
2023/06/29 03:01:37.181, True, 1.989, 0.135653
2023/06/29 03:01:37.677, True, 2.021, 0.135424
2023/06/29 03:01:38.181, True, 1.993, 0.135882
2023/06/29 03:01:38.685, True, 1.987, 0.133059
2023/06/29 03:01:39.181, True, 2.022, 0.134356
2023/06/29 03:01:39.685, True, 1.991, 0.135653
2023/06/29 03:01:40.189, True, 1.990, 0.135958
2023/06/29 03:01:40.693, True, 1.987, 0.134813
2023/06/29 03:01:41.189, True, 2.022, 0.136263
2023/06/29 03:01:41.693, True, 1.990, 0.133135
2023/06/29 03:01:42.197, True, 1.990, 0.136263
2023/06/29 03:01:42.693, True, 2.021, 0.136568
2023/06/29 03:01:43.197, True, 2.322, 0.136416
2023/06/29 03:01:43.701, True, 1.992, 0.135424
2023/06/29 03:01:44.197, True, 2.022, 0.137179
2023/06/29 03:01:44.701, True, 1.989, 0.135882
2023/06/29 03:01:45.205, True, 1.989, 0.134432
2023/06/29 03:01:45.701, True, 2.023, 0.133516
2023/06/29 03:01:46.205, True, 1.986, 0.136797
2023/06/29 03:01:46.710, True, 1.990, 0.135119
2023/06/29 03:01:47.213, True, 1.990, 0.136034
2023/06/29 03:01:47.709, True, 2.024, 0.135348
2023/06/29 03:01:48.213, True, 1.656, 0.136492
2023/06/29 03:01:48.709, True, 2.022, 0.137713
2023/06/29 03:01:49.213, True, 1.991, 0.134432
2023/06/29 03:01:49.717, True, 1.988, 0.137026
2023/06/29 03:01:50.213, True, 2.022, 0.135348
2023/06/29 03:01:50.717, True, 1.990, 0.135729
2023/06/29 03:01:51.221, True, 1.990, 0.134127
2023/06/29 03:01:51.717, True, 2.022, 0.133974
2023/06/29 03:01:52.221, True, 1.989, 0.135119
2023/06/29 03:01:52.725, True, 1.658, 0.135500
2023/06/29 03:01:53.221, True, 2.022, 0.136568
2023/06/29 03:01:53.725, True, 1.990, 0.136873
2023/06/29 03:01:54.221, True, 1.685, 0.134661
2023/06/29 03:01:54.725, True, 1.990, 0.135271
2023/06/29 03:01:55.229, True, 1.992, 0.134661
2023/06/29 03:01:55.725, True, 2.020, 0.134051
2023/06/29 03:01:56.229, True, 1.989, 0.133974
2023/06/29 03:01:56.733, True, 1.658, 0.133593
2023/06/29 03:01:57.229, True, 2.022, 0.134279
2023/06/29 03:01:57.733, True, 1.989, 0.135424
2023/06/29 03:01:58.237, True, 1.990, 0.133059
2023/06/29 03:01:58.733, True, 2.022, 0.135729
2023/06/29 03:01:59.237, True, 1.990, 0.134432
2023/06/29 03:01:59.741, True, 1.990, 0.134890
2023/06/29 03:02:00.237, True, 1.685, 0.136034
2023/06/29 03:02:00.741, True, 1.989, 0.134432
2023/06/29 03:02:01.237, True, 2.022, 0.134737
2023/06/29 03:02:01.741, True, 1.989, 0.135119
2023/06/29 03:02:02.245, True, 1.990, 0.133669
2023/06/29 03:02:02.741, True, 2.025, 0.133974
2023/06/29 03:02:03.245, True, 1.987, 0.136187
2023/06/29 03:02:03.749, True, 1.989, 0.133440
2023/06/29 03:02:04.245, True, 2.024, 0.132525
2023/06/29 03:02:04.749, True, 1.656, 0.134890
2023/06/29 03:02:05.253, True, 2.322, 0.133288
2023/06/29 03:02:05.749, True, 1.685, 0.135576
2023/06/29 03:02:06.253, True, 1.990, 0.135119
2023/06/29 03:02:06.757, True, 1.989, 0.133669
2023/06/29 03:02:07.253, True, 1.686, 0.134279
2023/06/29 03:02:07.758, True, 1.989, 0.135042
2023/06/29 03:02:08.261, True, 1.989, 0.132982
2023/06/29 03:02:08.758, True, 2.022, 0.132830
2023/06/29 03:02:09.261, True, 1.989, 0.133898
2023/06/29 03:02:09.765, True, 1.989, 0.135195
2023/06/29 03:02:10.262, True, 1.685, 0.133745
2023/06/29 03:02:10.766, True, 2.321, 0.131228
2023/06/29 03:02:11.269, True, 1.993, 0.132906
2023/06/29 03:02:11.765, True, 1.684, 0.134966
2023/06/29 03:02:12.269, True, 1.987, 0.135424
2023/06/29 03:02:12.765, True, 2.021, 0.135653
2023/06/29 03:02:13.270, True, 1.990, 0.133211
2023/06/29 03:02:13.773, True, 1.992, 0.134356
2023/06/29 03:02:14.269, True, 2.019, 0.134432
2023/06/29 03:02:14.774, True, 1.657, 0.133669
2023/06/29 03:02:15.277, True, 1.991, 0.134508
2023/06/29 03:02:15.781, True, 1.988, 0.134203
2023/06/29 03:02:16.277, True, 2.025, 0.133288
2023/06/29 03:02:16.782, True, 1.987, 0.133593
2023/06/29 03:02:17.285, True, 1.990, 0.132982
2023/06/29 03:02:17.781, True, 2.359, 0.133974
2023/06/29 03:02:18.285, True, 1.990, 0.133440
2023/06/29 03:02:18.789, True, 1.989, 0.133745
2023/06/29 03:02:19.285, True, 2.022, 0.133440
2023/06/29 03:02:19.790, True, 1.990, 0.134432
2023/06/29 03:02:20.293, True, 1.990, 0.134051
2023/06/29 03:02:20.789, True, 1.685, 0.133822
2023/06/29 03:02:21.294, True, 1.990, 0.135042
2023/06/29 03:02:21.797, True, 1.989, 0.135119
2023/06/29 03:02:22.293, True, 2.022, 0.133974
2023/06/29 03:02:22.798, True, 1.991, 0.134890
2023/06/29 03:02:23.294, True, 2.021, 0.133898
2023/06/29 03:02:23.797, True, 1.657, 0.132982
2023/06/29 03:02:24.301, True, 1.991, 0.134966
2023/06/29 03:02:24.797, True, 2.022, 0.132219
2023/06/29 03:02:25.301, True, 1.988, 0.134127
2023/06/29 03:02:25.805, True, 1.993, 0.135042
2023/06/29 03:02:26.301, True, 1.682, 0.133669
2023/06/29 03:02:26.805, True, 1.989, 0.135195
2023/06/29 03:02:27.309, True, 2.324, 0.133745
2023/06/29 03:02:27.804, True, 2.020, 0.131991
2023/06/29 03:02:28.309, True, 1.989, 0.132906
2023/06/29 03:02:28.813, True, 1.992, 0.135271
2023/06/29 03:02:29.309, True, 2.022, 0.133211
2023/06/29 03:02:29.813, True, 1.987, 0.132982
2023/06/29 03:02:30.317, True, 1.992, 0.134813
2023/06/29 03:02:30.813, True, 1.683, 0.132296
2023/06/29 03:02:31.317, True, 1.989, 0.132753
2023/06/29 03:02:31.813, True, 2.022, 0.131380
2023/06/29 03:02:32.317, True, 1.993, 0.133059
2023/06/29 03:02:32.821, True, 1.986, 0.130694
2023/06/29 03:02:33.317, True, 2.022, 0.133516
2023/06/29 03:02:33.821, True, 1.989, 0.133059
2023/06/29 03:02:34.325, True, 1.990, 0.134432
2023/06/29 03:02:34.830, True, 1.993, 0.132601
2023/06/29 03:02:35.326, True, 2.018, 0.134356
2023/06/29 03:02:35.830, True, 1.990, 0.132753
2023/06/29 03:02:36.326, True, 2.022, 0.130694
2023/06/29 03:02:36.829, True, 1.989, 0.134356
2023/06/29 03:02:37.334, True, 1.990, 0.133059
2023/06/29 03:02:37.829, True, 1.686, 0.135882
2023/06/29 03:02:38.333, True, 1.989, 0.134203
2023/06/29 03:02:38.837, True, 1.990, 0.132448
2023/06/29 03:02:39.333, True, 2.023, 0.132372
2023/06/29 03:02:39.838, True, 1.988, 0.134432
2023/06/29 03:02:40.341, True, 1.992, 0.130846
2023/06/29 03:02:40.838, True, 2.019, 0.132906
2023/06/29 03:02:41.341, True, 1.991, 0.132601
2023/06/29 03:02:41.846, True, 1.988, 0.132296
2023/06/29 03:02:42.341, True, 2.022, 0.134051
2023/06/29 03:02:42.845, True, 1.991, 0.132525
2023/06/29 03:02:43.349, True, 1.987, 0.133211
2023/06/29 03:02:43.854, True, 1.990, 0.132296
2023/06/29 03:02:44.349, True, 2.022, 0.131533
2023/06/29 03:02:44.854, True, 1.990, 0.129397
2023/06/29 03:02:45.358, True, 1.989, 0.133135
2023/06/29 03:02:45.854, True, 2.022, 0.132677
2023/06/29 03:02:46.358, True, 1.990, 0.133898
2023/06/29 03:02:46.854, True, 2.022, 0.134279
2023/06/29 03:02:47.358, True, 1.990, 0.133669
2023/06/29 03:02:47.861, True, 1.990, 0.133974
2023/06/29 03:02:48.365, True, 1.990, 0.131991
2023/06/29 03:02:48.862, True, 2.024, 0.134127
2023/06/29 03:02:49.366, True, 1.987, 0.133135
2023/06/29 03:02:49.862, True, 2.022, 0.134585
2023/06/29 03:02:50.365, True, 2.321, 0.135500
2023/06/29 03:02:50.869, True, 1.990, 0.131609
2023/06/29 03:02:51.366, True, 2.021, 0.133822
2023/06/29 03:02:51.870, True, 1.989, 0.134432
2023/06/29 03:02:52.374, True, 1.990, 0.131991
2023/06/29 03:02:52.869, True, 1.685, 0.134813
2023/06/29 03:02:53.373, True, 1.990, 0.133288
2023/06/29 03:02:53.877, True, 2.321, 0.131991
2023/06/29 03:02:54.382, True, 1.990, 0.134356
2023/06/29 03:02:54.878, True, 2.021, 0.132219
2023/06/29 03:02:55.382, True, 1.993, 0.131914
2023/06/29 03:02:55.885, True, 1.986, 0.132067
2023/06/29 03:02:56.381, True, 2.022, 0.134127
2023/06/29 03:02:56.885, True, 1.990, 0.129931
2023/06/29 03:02:57.390, True, 1.990, 0.132677
2023/06/29 03:02:57.885, True, 2.021, 0.132296
2023/06/29 03:02:58.389, True, 1.991, 0.134051
2023/06/29 03:02:58.886, True, 1.684, 0.132601
2023/06/29 03:02:59.390, True, 1.990, 0.131533
2023/06/29 03:02:59.893, True, 1.989, 0.132677
2023/06/29 03:03:00.389, True, 2.022, 0.133440
2023/06/29 03:03:00.894, True, 1.990, 0.132525
2023/06/29 03:03:01.397, True, 1.989, 0.131838
2023/06/29 03:03:01.893, True, 2.022, 0.132601
2023/06/29 03:03:02.397, True, 1.993, 0.131075
2023/06/29 03:03:02.901, True, 1.986, 0.132525
2023/06/29 03:03:03.397, True, 1.685, 0.132525
2023/06/29 03:03:03.901, True, 1.990, 0.132601
2023/06/29 03:03:04.405, True, 1.990, 0.133135
2023/06/29 03:03:04.901, True, 2.022, 0.132372
2023/06/29 03:03:05.405, True, 1.991, 0.133135
2023/06/29 03:03:05.909, True, 1.991, 0.132067
2023/06/29 03:03:06.405, True, 2.020, 0.132296
2023/06/29 03:03:06.909, True, 2.321, 0.131914
2023/06/29 03:03:07.414, True, 1.990, 0.131380
2023/06/29 03:03:07.909, True, 2.023, 0.130999
2023/06/29 03:03:08.413, True, 1.988, 0.132906
2023/06/29 03:03:08.918, True, 1.992, 0.132296
2023/06/29 03:03:09.413, True, 2.356, 0.131914
2023/06/29 03:03:09.917, True, 1.992, 0.133135
2023/06/29 03:03:10.421, True, 1.987, 0.129778
2023/06/29 03:03:10.917, True, 2.022, 0.131380
2023/06/29 03:03:11.421, True, 1.990, 0.132753
2023/06/29 03:03:11.925, True, 1.989, 0.131609
2023/06/29 03:03:12.421, True, 2.022, 0.129702
2023/06/29 03:03:12.925, True, 1.991, 0.132143
2023/06/29 03:03:13.422, True, 1.684, 0.130999
2023/06/29 03:03:13.925, True, 1.989, 0.132296
2023/06/29 03:03:14.430, True, 1.991, 0.129091
2023/06/29 03:03:14.933, True, 1.990, 0.130617
2023/06/29 03:03:15.429, True, 2.020, 0.131151
2023/06/29 03:03:15.934, True, 1.990, 0.132525
2023/06/29 03:03:16.437, True, 1.990, 0.132525
2023/06/29 03:03:16.933, True, 1.685, 0.130617
2023/06/29 03:03:17.437, True, 1.988, 0.132525
2023/06/29 03:03:17.942, True, 1.658, 0.131991
2023/06/29 03:03:18.437, True, 2.024, 0.132906
2023/06/29 03:03:18.941, True, 1.989, 0.131762
2023/06/29 03:03:19.445, True, 1.988, 0.131991
2023/06/29 03:03:19.941, True, 1.688, 0.132906
2023/06/29 03:03:20.446, True, 1.988, 0.131228
2023/06/29 03:03:20.950, True, 1.988, 0.131380
2023/06/29 03:03:21.446, True, 2.021, 0.131838
2023/06/29 03:03:21.950, True, 1.992, 0.133593
2023/06/29 03:03:22.454, True, 1.988, 0.134661
2023/06/29 03:03:22.950, True, 2.024, 0.131151
2023/06/29 03:03:23.454, True, 1.987, 0.132601
2023/06/29 03:03:23.957, True, 1.990, 0.132677
2023/06/29 03:03:24.462, True, 1.990, 0.132067
2023/06/29 03:03:24.958, True, 2.021, 0.133211
2023/06/29 03:03:25.462, True, 1.990, 0.131456
2023/06/29 03:03:25.965, True, 1.990, 0.131838
2023/06/29 03:03:26.462, True, 2.022, 0.130922
2023/06/29 03:03:26.966, True, 1.990, 0.132296
2023/06/29 03:03:27.462, True, 2.021, 0.130465
2023/06/29 03:03:27.966, True, 1.990, 0.132372
2023/06/29 03:03:28.469, True, 1.990, 0.131228
2023/06/29 03:03:28.966, True, 2.022, 0.131380
2023/06/29 03:03:29.469, True, 1.989, 0.130999
2023/06/29 03:03:29.973, True, 1.990, 0.131685
2023/06/29 03:03:30.469, True, 2.021, 0.131838
2023/06/29 03:03:30.974, True, 1.990, 0.132601
2023/06/29 03:03:31.478, True, 1.992, 0.131075
2023/06/29 03:03:31.973, True, 2.019, 0.131075
2023/06/29 03:03:32.478, True, 1.658, 0.131838
2023/06/29 03:03:32.981, True, 1.989, 0.130694
2023/06/29 03:03:33.477, True, 2.022, 0.132525
2023/06/29 03:03:33.982, True, 1.989, 0.130541
2023/06/29 03:03:34.486, True, 1.989, 0.131228
2023/06/29 03:03:34.982, True, 1.685, 0.131914
2023/06/29 03:03:35.485, True, 1.989, 0.131533
2023/06/29 03:03:35.989, True, 1.990, 0.132753
2023/06/29 03:03:36.486, True, 2.022, 0.132372
2023/06/29 03:03:36.990, True, 1.990, 0.130694
2023/06/29 03:03:37.493, True, 1.992, 0.131914
2023/06/29 03:03:37.990, True, 2.018, 0.131228
2023/06/29 03:03:38.494, True, 1.990, 0.132525
2023/06/29 03:03:38.998, True, 1.990, 0.131151
2023/06/29 03:03:39.494, True, 1.685, 0.129702
2023/06/29 03:03:39.998, True, 1.991, 0.132982
2023/06/29 03:03:40.502, True, 1.989, 0.130617
2023/06/29 03:03:40.998, True, 2.021, 0.131762
2023/06/29 03:03:41.502, True, 1.989, 0.131762
2023/06/29 03:03:41.997, True, 2.023, 0.130617
2023/06/29 03:03:42.502, True, 1.989, 0.130846
2023/06/29 03:03:43.005, True, 1.993, 0.132753
2023/06/29 03:03:43.510, True, 1.985, 0.133288
2023/06/29 03:03:44.006, True, 1.685, 0.131456
2023/06/29 03:03:44.510, True, 1.990, 0.130007
2023/06/29 03:03:45.014, True, 1.990, 0.130388
2023/06/29 03:03:45.510, True, 2.022, 0.130922
2023/06/29 03:03:46.013, True, 1.990, 0.128099
2023/06/29 03:03:46.517, True, 1.990, 0.131914
2023/06/29 03:03:47.013, True, 2.022, 0.132143
2023/06/29 03:03:47.517, True, 1.989, 0.131228
2023/06/29 03:03:48.021, True, 1.990, 0.133211
2023/06/29 03:03:48.517, True, 2.022, 0.131838
2023/06/29 03:03:49.022, True, 1.989, 0.132219
2023/06/29 03:03:49.525, True, 1.990, 0.132601
2023/06/29 03:03:50.022, True, 2.022, 0.131304
2023/06/29 03:03:50.525, True, 1.990, 0.128328
2023/06/29 03:03:51.030, True, 1.989, 0.129091
2023/06/29 03:03:51.525, True, 1.685, 0.132296
2023/06/29 03:03:52.029, True, 1.990, 0.131304
2023/06/29 03:03:52.533, True, 1.989, 0.130465
2023/06/29 03:03:53.030, True, 2.022, 0.131380
2023/06/29 03:03:53.534, True, 1.990, 0.131838
2023/06/29 03:03:54.038, True, 1.990, 0.131838
2023/06/29 03:03:54.534, True, 1.685, 0.128862
2023/06/29 03:03:55.038, True, 1.990, 0.132143
2023/06/29 03:03:55.534, True, 2.022, 0.132372
2023/06/29 03:03:56.037, True, 1.658, 0.130541
2023/06/29 03:03:56.542, True, 1.990, 0.132677
2023/06/29 03:03:57.046, True, 1.990, 0.131380
2023/06/29 03:03:57.542, True, 2.022, 0.132525
2023/06/29 03:03:58.046, True, 1.658, 0.130770
2023/06/29 03:03:58.550, True, 1.989, 0.130846
2023/06/29 03:03:59.046, True, 2.022, 0.132067
2023/06/29 03:03:59.550, True, 1.990, 0.129778
2023/06/29 03:04:00.046, True, 2.021, 0.131838
2023/06/29 03:04:00.550, True, 1.990, 0.131456
2023/06/29 03:04:01.054, True, 1.990, 0.129168
2023/06/29 03:04:01.558, True, 1.990, 0.133440
2023/06/29 03:04:02.054, True, 2.021, 0.129931
2023/06/29 03:04:02.558, True, 1.990, 0.131609
2023/06/29 03:04:03.053, True, 2.021, 0.128939
2023/06/29 03:04:03.557, True, 1.990, 0.130312
2023/06/29 03:04:04.062, True, 1.990, 0.130694
2023/06/29 03:04:04.566, True, 1.658, 0.130465
2023/06/29 03:04:05.062, True, 2.022, 0.129473
2023/06/29 03:04:05.565, True, 1.990, 0.133059
2023/06/29 03:04:06.069, True, 1.989, 0.130999
2023/06/29 03:04:06.566, True, 2.022, 0.130999
2023/06/29 03:04:07.069, True, 1.990, 0.133288
2023/06/29 03:04:07.574, True, 1.990, 0.130312
2023/06/29 03:04:08.070, True, 1.685, 0.131685
2023/06/29 03:04:08.574, True, 2.321, 0.130999
2023/06/29 03:04:09.077, True, 1.658, 0.131991
2023/06/29 03:04:09.574, True, 2.021, 0.130007
2023/06/29 03:04:10.078, True, 1.992, 0.131304
2023/06/29 03:04:10.582, True, 1.988, 0.131609